WXM80 ListenWXM80 Stop

You find our weather info also at:

UK Metoffice

WeatherCloud

Weather Underground

Northeastern Weather Network

AWEKAS

Citizen Weather Observer Program (CWOP)

HAMweather, WeatherForYou, PWS Weather


Weather Underground History page Text

Daily Summary for August 25, 2016 Units:  English    Metric   Both
« Previous Day
Next Day »
Daily Weekly Monthly Yearly Custom
  High: Low: Average:
Temperature: 86.3 °F 67.0 °F 76.4 °F
Dew Point: 71.1 °F 63.1 °F 67.4 °F
Humidity: 92 % 53 % 75 %
Wind Speed: 6.0 mph 0.0 mph 1.7 mph
Wind Gust: 13.8 mph - -
Wind:- - SSW
Pressure: 30.14 in 29.95 in -
Precipitation: 0.00 in    
Historical Graphs
 
 
Tabular Data for August 25, 2016
Time Temperature Dew Point Pressure Wind Wind Speed Wind Gust Humidity Rainfall Rate (Hourly)
00:01 73.0 °F 66.5 °F 30.13 in SSW 1.9 mph 4.6 mph 80 % 0.00 in
00:06 73.0 °F 66.8 °F 30.14 in SSW 1.4 mph 3.5 mph 81 % 0.00 in
00:11 72.9 °F 66.7 °F 30.14 in SW 2.7 mph 5.8 mph 81 % 0.00 in
00:16 72.8 °F 66.6 °F 30.13 in SSW 0.4 mph 3.5 mph 81 % 0.00 in
00:21 72.8 °F 66.6 °F 30.13 in SSW 1.4 mph 5.8 mph 81 % 0.00 in
00:26 72.7 °F 66.2 °F 30.13 in WSW 2.1 mph 5.0 mph 80 % 0.00 in
00:31 72.7 °F 66.2 °F 30.13 in SW 1.5 mph 3.5 mph 80 % 0.00 in
00:36 72.6 °F 66.1 °F 30.13 in SW 1.9 mph 3.5 mph 80 % 0.00 in
00:41 72.5 °F 66.0 °F 30.13 in WSW 0.2 mph 2.3 mph 80 % 0.00 in
00:47 72.5 °F 66.0 °F 30.12 in SW 1.1 mph 1.2 mph 80 % 0.00 in
00:52 72.4 °F 65.9 °F 30.12 in SSW 1.4 mph 3.5 mph 80 % 0.00 in
00:57 72.4 °F 65.9 °F 30.12 in SW 1.0 mph 3.5 mph 80 % 0.00 in
01:02 72.3 °F 65.8 °F 30.12 in SW 1.1 mph 1.2 mph 80 % 0.00 in
01:07 72.2 °F 65.7 °F 30.11 in South 2.2 mph 4.6 mph 80 % 0.00 in
01:12 72.1 °F 65.2 °F 30.11 in SW 1.7 mph 4.6 mph 79 % 0.00 in
01:17 72.0 °F 65.1 °F 30.11 in WSW 2.2 mph 5.0 mph 79 % 0.00 in
01:22 71.8 °F 64.9 °F 30.12 in SW 0.5 mph 2.3 mph 79 % 0.00 in
01:27 71.7 °F 64.8 °F 30.12 in SW 1.9 mph 3.5 mph 79 % 0.00 in
01:32 71.6 °F 64.4 °F 30.11 in SSW 2.5 mph 3.0 mph 78 % 0.00 in
01:37 71.5 °F 64.3 °F 30.11 in South 1.0 mph 5.0 mph 78 % 0.00 in
01:53 71.2 °F 64.0 °F 30.10 in SW 0.1 mph 3.5 mph 78 % 0.00 in
01:58 71.1 °F 63.9 °F 30.10 in SSW 0.9 mph 3.5 mph 78 % 0.00 in
02:03 70.9 °F 63.7 °F 30.11 in SSW 0.9 mph 2.3 mph 78 % 0.00 in
02:08 70.8 °F 63.6 °F 30.11 in SW 1.8 mph 3.5 mph 78 % 0.00 in
02:13 70.7 °F 63.5 °F 30.10 in SW 0.7 mph 2.0 mph 78 % 0.00 in
02:18 70.6 °F 63.4 °F 30.10 in SW 1.8 mph 3.5 mph 78 % 0.00 in
02:23 70.5 °F 63.3 °F 30.10 in WSW 1.0 mph 3.5 mph 78 % 0.00 in
02:28 70.4 °F 63.2 °F 30.09 in SW 0.4 mph 2.3 mph 78 % 0.00 in
02:33 70.3 °F 63.5 °F 30.09 in SSW 1.5 mph 3.5 mph 79 % 0.00 in
02:39 70.2 °F 63.4 °F 30.08 in SSW 0.3 mph 2.3 mph 79 % 0.00 in
02:44 70.1 °F 63.3 °F 30.08 in SW 1.4 mph 3.5 mph 79 % 0.00 in
02:49 70.0 °F 63.2 °F 30.09 in WSW 1.4 mph 4.0 mph 79 % 0.00 in
02:54 69.9 °F 63.1 °F 30.09 in WSW 1.6 mph 3.5 mph 79 % 0.00 in
02:59 69.8 °F 63.3 °F 30.10 in WSW 2.1 mph 4.6 mph 80 % 0.00 in
03:04 69.8 °F 63.3 °F 30.10 in SW 1.0 mph 6.9 mph 80 % 0.00 in
03:09 69.7 °F 63.3 °F 30.10 in SW 1.4 mph 6.9 mph 80 % 0.00 in
03:14 69.6 °F 63.5 °F 30.10 in SSW 2.3 mph 4.6 mph 81 % 0.00 in
03:19 69.6 °F 63.5 °F 30.10 in WSW 1.5 mph 4.0 mph 81 % 0.00 in
03:24 69.5 °F 63.4 °F 30.10 in SSW 2.1 mph 6.0 mph 81 % 0.00 in
03:35 69.3 °F 63.6 °F 30.09 in South 1.9 mph 3.5 mph 82 % 0.00 in
03:40 69.3 °F 63.6 °F 30.09 in Calm   3.5 mph 82 % 0.00 in
03:45 69.2 °F 63.5 °F 30.09 in SW 0.3 mph 2.3 mph 82 % 0.00 in
03:50 69.1 °F 63.4 °F 30.09 in SW 0.3 mph 1.2 mph 82 % 0.00 in
03:55 69.0 °F 63.3 °F 30.09 in Calm     82 % 0.00 in
04:00 68.9 °F 63.5 °F 30.09 in SW 0.1 mph 2.3 mph 83 % 0.00 in
04:05 68.8 °F 63.4 °F 30.09 in SW 0.6 mph 2.3 mph 83 % 0.00 in
04:10 68.7 °F 63.3 °F 30.09 in SW 0.2 mph 2.3 mph 83 % 0.00 in
04:15 68.6 °F 63.2 °F 30.08 in SW 1.2 mph 3.0 mph 83 % 0.00 in
04:21 68.5 °F 63.5 °F 30.09 in Calm   3.0 mph 84 % 0.00 in
04:26 68.4 °F 63.4 °F 30.08 in Calm     84 % 0.00 in
04:31 68.3 °F 63.3 °F 30.09 in Calm   3.0 mph 84 % 0.00 in
04:36 68.2 °F 63.2 °F 30.09 in Calm   2.0 mph 84 % 0.00 in
04:41 68.1 °F 63.4 °F 30.09 in SW 0.9 mph 1.2 mph 85 % 0.00 in
04:46 68.0 °F 63.3 °F 30.09 in Calm   3.0 mph 85 % 0.00 in
04:51 67.9 °F 63.6 °F 30.09 in Calm   1.0 mph 86 % 0.00 in
05:06 67.7 °F 63.7 °F 30.10 in SW 0.1 mph 1.2 mph 87 % 0.00 in
05:11 67.6 °F 63.6 °F 30.10 in SW 0.3 mph 2.3 mph 87 % 0.00 in
05:16 67.5 °F 63.5 °F 30.10 in SW 0.3 mph 1.2 mph 87 % 0.00 in
05:21 67.4 °F 63.7 °F 30.10 in SW 0.1 mph 1.2 mph 88 % 0.00 in
05:26 67.3 °F 63.6 °F 30.10 in WSW 0.2 mph 1.2 mph 88 % 0.00 in
05:31 67.3 °F 63.9 °F 30.10 in WSW 0.4 mph 1.2 mph 89 % 0.00 in
05:36 67.2 °F 63.8 °F 30.10 in WSW 0.3 mph 1.2 mph 89 % 0.00 in
05:41 67.1 °F 63.7 °F 30.10 in Calm   1.2 mph 89 % 0.00 in
05:52 67.1 °F 63.7 °F 30.10 in WSW 0.8 mph 1.2 mph 89 % 0.00 in
05:57 67.1 °F 63.7 °F 30.10 in Calm   1.2 mph 89 % 0.00 in
06:02 67.1 °F 64.1 °F 30.10 in WSW 0.1 mph 1.2 mph 90 % 0.00 in
06:07 67.0 °F 64.0 °F 30.10 in Calm     90 % 0.00 in
06:12 67.1 °F 64.1 °F 30.10 in WSW 0.4 mph 1.2 mph 90 % 0.00 in
06:17 67.1 °F 64.1 °F 30.10 in Calm   1.2 mph 90 % 0.00 in
06:22 67.1 °F 64.1 °F 30.10 in Calm   1.2 mph 90 % 0.00 in
06:27 67.1 °F 64.1 °F 30.10 in Calm     90 % 0.00 in
06:32 67.1 °F 64.1 °F 30.09 in Calm     90 % 0.00 in
06:37 67.1 °F 64.1 °F 30.09 in Calm   1.2 mph 90 % 0.00 in
06:43 67.0 °F 64.0 °F 30.09 in Calm     90 % 0.00 in
06:48 67.1 °F 64.1 °F 30.09 in WSW 0.5 mph 2.3 mph 90 % 0.00 in
06:53 67.1 °F 64.1 °F 30.09 in SW 0.8 mph 2.3 mph 90 % 0.00 in
06:58 67.1 °F 64.4 °F 30.10 in South 0.2 mph 1.2 mph 91 % 0.00 in
07:03 67.1 °F 64.4 °F 30.10 in WSW 0.7 mph 3.5 mph 91 % 0.00 in
07:08 67.2 °F 64.5 °F 30.10 in ESE 0.4 mph 1.2 mph 91 % 0.00 in
07:13 67.3 °F 64.6 °F 30.10 in WSW 0.4 mph 2.3 mph 91 % 0.00 in
07:18 67.4 °F 64.7 °F 30.10 in SSW 0.9 mph 3.0 mph 91 % 0.00 in
07:23 67.6 °F 64.9 °F 30.10 in SW 0.2 mph 3.5 mph 91 % 0.00 in
07:28 67.7 °F 65.3 °F 30.10 in SW 3.0 mph 4.6 mph 92 % 0.00 in
07:34 67.9 °F 65.2 °F 30.10 in South 1.5 mph 2.3 mph 91 % 0.00 in
07:39 68.1 °F 65.4 °F 30.10 in SW 1.5 mph 3.5 mph 91 % 0.00 in
07:44 68.3 °F 65.6 °F 30.10 in SW 1.0 mph 4.6 mph 91 % 0.00 in
07:49 68.5 °F 65.8 °F 30.10 in SW 1.3 mph 5.8 mph 91 % 0.00 in
07:54 68.7 °F 65.6 °F 30.10 in SSW 2.1 mph 8.0 mph 90 % 0.00 in
07:59 69.0 °F 65.9 °F 30.10 in WSW 2.2 mph 3.5 mph 90 % 0.00 in
08:04 69.3 °F 65.9 °F 30.10 in East 0.4 mph 5.8 mph 89 % 0.00 in
08:09 69.5 °F 66.1 °F 30.09 in SW 0.9 mph 3.5 mph 89 % 0.00 in
08:14 69.7 °F 66.3 °F 30.09 in SSE 0.4 mph   89 % 0.00 in
08:19 70.0 °F 66.3 °F 30.09 in WSW 0.8 mph 2.3 mph 88 % 0.00 in
08:25 70.3 °F 66.6 °F 30.09 in SW 0.7 mph 3.5 mph 88 % 0.00 in
08:30 70.6 °F 66.5 °F 30.09 in WSW 1.1 mph 4.6 mph 87 % 0.00 in
08:35 70.9 °F 66.8 °F 30.09 in WSW 4.1 mph 9.0 mph 87 % 0.00 in
08:40 71.3 °F 67.2 °F 30.09 in SW 2.6 mph 3.5 mph 87 % 0.00 in
08:45 71.5 °F 67.1 °F 30.10 in WSW 0.8 mph 2.3 mph 86 % 0.00 in
08:50 71.9 °F 67.5 °F 30.10 in SW 3.1 mph 4.6 mph 86 % 0.00 in
08:55 72.2 °F 67.1 °F 30.09 in SSW 5.3 mph 8.1 mph 84 % 0.00 in
09:00 72.6 °F 67.5 °F 30.09 in SW 2.3 mph 4.0 mph 84 % 0.00 in
09:05 73.0 °F 67.5 °F 30.09 in WSW 0.9 mph 3.5 mph 83 % 0.00 in
09:10 73.3 °F 67.8 °F 30.09 in WSW 2.1 mph 5.0 mph 83 % 0.00 in
09:15 73.7 °F 67.5 °F 30.09 in WSW 3.4 mph 3.5 mph 81 % 0.00 in
09:20 74.0 °F 67.8 °F 30.09 in SW 3.0 mph 6.0 mph 81 % 0.00 in
09:26 74.3 °F 68.1 °F 30.09 in SW 3.0 mph 8.0 mph 81 % 0.00 in
09:31 74.9 °F 67.9 °F 30.09 in WSW 5.0 mph 9.2 mph 79 % 0.00 in
09:36 75.4 °F 68.4 °F 30.09 in SW 3.0 mph 12.0 mph 79 % 0.00 in
09:41 75.8 °F 68.5 °F 30.09 in Calm   5.0 mph 78 % 0.00 in
09:51 77.1 °F 67.8 °F 30.08 in South 3.0 mph 7.0 mph 73 % 0.00 in
09:56 77.9 °F 67.8 °F 30.08 in SSW 2.0 mph 12.0 mph 71 % 0.00 in
10:01 78.8 °F 68.2 °F 30.07 in SSW 1.4 mph 3.5 mph 70 % 0.00 in
10:06 79.4 °F 68.8 °F 30.07 in SSW 3.0 mph 8.0 mph 70 % 0.00 in
10:11 79.8 °F 68.3 °F 30.07 in SSW 3.0 mph 6.0 mph 68 % 0.00 in
10:16 80.1 °F 67.7 °F 30.07 in West 3.0 mph 8.0 mph 66 % 0.00 in
10:21 80.2 °F 67.8 °F 30.07 in SW 6.0 mph 12.0 mph 66 % 0.00 in
10:26 80.3 °F 67.9 °F 30.07 in SW 2.0 mph 5.0 mph 66 % 0.00 in
10:31 80.4 °F 67.5 °F 30.07 in SW 3.0 mph 7.0 mph 65 % 0.00 in
10:36 80.6 °F 68.1 °F 30.07 in SW 2.0 mph 7.0 mph 66 % 0.00 in
10:41 80.9 °F 68.0 °F 30.07 in SW 2.0 mph 6.0 mph 65 % 0.00 in
10:46 81.3 °F 68.4 °F 30.07 in SSW 3.0 mph 10.0 mph 65 % 0.00 in
10:51 81.8 °F 68.0 °F 30.06 in South 2.0 mph 12.0 mph 63 % 0.00 in
10:56 82.3 °F 68.4 °F 30.06 in SSW 3.0 mph 7.0 mph 63 % 0.00 in
11:01 82.8 °F 68.4 °F 30.07 in SW 3.7 mph 6.0 mph 62 % 0.00 in
11:06 83.3 °F 68.4 °F 30.06 in SSW 2.0 mph 7.0 mph 61 % 0.00 in
11:11 83.8 °F 68.4 °F 30.07 in SSE 1.0 mph 7.0 mph 60 % 0.00 in
11:16 84.0 °F 68.2 °F 30.06 in South 2.0 mph 6.0 mph 59 % 0.00 in
11:21 84.4 °F 68.0 °F 30.06 in South 2.0 mph 9.0 mph 58 % 0.00 in
11:26 84.8 °F 69.9 °F 30.06 in South 2.0 mph 5.0 mph 61 % 0.00 in
11:31 85.2 °F 68.2 °F 30.06 in SSW 3.0 mph 6.0 mph 57 % 0.00 in
11:36 85.3 °F 68.3 °F 30.06 in SSW 6.0 mph 10.0 mph 57 % 0.00 in
11:41 85.4 °F 67.9 °F 30.06 in SSW 3.0 mph 12.0 mph 56 % 0.00 in
11:46 85.2 °F 67.7 °F 30.06 in South 3.0 mph 7.0 mph 56 % 0.00 in
11:51 85.3 °F 69.8 °F 30.06 in South 3.0 mph 6.0 mph 60 % 0.00 in
11:56 85.4 °F 67.9 °F 30.05 in South 2.0 mph 6.0 mph 56 % 0.00 in
12:01 85.4 °F 67.4 °F 30.06 in SW 2.9 mph 8.1 mph 55 % 0.00 in
12:06 85.5 °F 68.5 °F 30.05 in SSW 3.6 mph 6.9 mph 57 % 0.00 in
12:11 85.9 °F 68.9 °F 30.05 in West 2.6 mph 10.4 mph 57 % 0.00 in
12:16 86.2 °F 68.7 °F 30.05 in SSW 3.6 mph 6.0 mph 56 % 0.00 in
12:21 86.3 °F 67.7 °F 30.05 in SSW 3.9 mph 5.0 mph 54 % 0.00 in
12:26 86.1 °F 67.0 °F 30.05 in SE 4.0 mph 13.8 mph 53 % 0.00 in
12:31 85.4 °F 66.9 °F 30.05 in SSW 1.9 mph 4.0 mph 54 % 0.00 in
12:36 85.2 °F 67.2 °F 30.05 in ENE 1.0 mph 3.5 mph 55 % 0.00 in
12:42 85.3 °F 66.8 °F 30.05 in SSW 3.8 mph 10.0 mph 54 % 0.00 in
12:47 85.3 °F 66.8 °F 30.04 in SE 4.4 mph 10.0 mph 54 % 0.00 in
12:52 85.4 °F 67.9 °F 30.04 in South 1.7 mph 4.6 mph 56 % 0.00 in
12:57 85.7 °F 67.7 °F 30.03 in SE 4.9 mph 11.5 mph 55 % 0.00 in
13:02 85.0 °F 66.5 °F 30.04 in SSW 3.6 mph 9.2 mph 54 % 0.00 in
13:07 84.6 °F 66.1 °F 30.04 in South 2.9 mph 6.9 mph 54 % 0.00 in
13:12 84.0 °F 66.6 °F 30.04 in SSW 1.9 mph 4.6 mph 56 % 0.00 in
13:17 83.6 °F 67.3 °F 30.04 in SE 2.5 mph 8.0 mph 58 % 0.00 in
13:22 83.1 °F 66.8 °F 30.04 in South 2.0 mph 3.5 mph 58 % 0.00 in
13:27 82.9 °F 67.6 °F 30.03 in SW 2.8 mph 3.5 mph 60 % 0.00 in
13:33 82.7 °F 67.4 °F 30.03 in ESE 2.3 mph 4.6 mph 60 % 0.00 in
13:38 82.5 °F 67.2 °F 30.03 in SSW 0.7 mph 8.1 mph 60 % 0.00 in
13:43 82.3 °F 67.5 °F 30.03 in WSW 2.1 mph 3.5 mph 61 % 0.00 in
13:48 82.4 °F 68.1 °F 30.03 in SSW 2.4 mph 3.5 mph 62 % 0.00 in
13:53 82.9 °F 68.5 °F 30.02 in SSW 3.0 mph 5.8 mph 62 % 0.00 in
13:58 83.0 °F 67.7 °F 30.02 in SSE 4.9 mph 10.4 mph 60 % 0.00 in
14:03 83.1 °F 68.7 °F 30.02 in SSE 3.0 mph 9.2 mph 62 % 0.00 in
14:08 83.6 °F 68.7 °F 30.02 in SSE 3.5 mph 8.1 mph 61 % 0.00 in
14:13 83.5 °F 67.7 °F 30.02 in South 4.0 mph 4.6 mph 59 % 0.00 in
14:18 83.1 °F 67.8 °F 30.02 in South 1.5 mph 6.9 mph 60 % 0.00 in
14:24 83.1 °F 68.3 °F 30.01 in SW 2.3 mph 8.1 mph 61 % 0.00 in
14:29 83.6 °F 68.7 °F 30.01 in SSE 3.4 mph 12.0 mph 61 % 0.00 in
14:34 84.0 °F 68.6 °F 30.01 in SSE 4.6 mph 6.9 mph 60 % 0.00 in
14:44 83.9 °F 68.0 °F 30.00 in SSE 4.1 mph 10.4 mph 59 % 0.00 in
14:49 83.6 °F 67.8 °F 30.00 in South 2.9 mph 6.0 mph 59 % 0.00 in
14:54 83.4 °F 68.1 °F 30.00 in SE 3.2 mph 6.9 mph 60 % 0.00 in
14:59 83.6 °F 68.7 °F 30.00 in SSW 4.3 mph 8.1 mph 61 % 0.00 in
15:04 84.1 °F 68.7 °F 30.00 in SSW 3.0 mph 8.0 mph 60 % 0.00 in
15:09 84.5 °F 69.1 °F 30.00 in West 4.5 mph 7.0 mph 60 % 0.00 in
15:15 84.9 °F 69.5 °F 29.99 in West 4.5 mph 11.5 mph 60 % 0.00 in
15:20 85.1 °F 69.7 °F 29.99 in SW 1.8 mph 3.5 mph 60 % 0.00 in
15:30 85.5 °F 69.5 °F 29.99 in SW 2.4 mph 8.1 mph 59 % 0.00 in
15:35 85.5 °F 69.0 °F 29.99 in SW 2.7 mph 5.8 mph 58 % 0.00 in
15:40 85.6 °F 69.6 °F 29.99 in SSE 2.1 mph 3.5 mph 59 % 0.00 in
15:45 85.3 °F 69.3 °F 29.99 in SSW 2.4 mph 6.9 mph 59 % 0.00 in
15:50 85.1 °F 70.1 °F 29.99 in South 2.6 mph 8.1 mph 61 % 0.00 in
15:55 85.0 °F 68.6 °F 29.99 in WSW 5.0 mph 11.0 mph 58 % 0.00 in
16:00 84.9 °F 69.0 °F 29.99 in SSW 1.6 mph 5.0 mph 59 % 0.00 in
16:05 85.0 °F 69.1 °F 29.99 in SSW 3.4 mph 7.0 mph 59 % 0.00 in
16:10 85.2 °F 69.3 °F 29.98 in NW 4.1 mph 6.9 mph 59 % 0.00 in
16:16 85.0 °F 69.1 °F 29.99 in South 5.0 mph 13.0 mph 59 % 0.00 in
16:21 84.7 °F 68.2 °F 29.99 in South 1.0 mph 7.0 mph 58 % 0.00 in
16:26 83.8 °F 68.0 °F 29.99 in South 3.0 mph 8.0 mph 59 % 0.00 in
16:31 83.4 °F 68.1 °F 29.99 in SSW 1.0 mph 6.0 mph 60 % 0.00 in
16:36 82.9 °F 68.5 °F 29.99 in South 2.0 mph 6.0 mph 62 % 0.00 in
16:41 82.5 °F 68.6 °F 29.99 in South 2.0 mph 9.0 mph 63 % 0.00 in
16:46 82.3 °F 68.9 °F 29.99 in South 5.0 mph 8.0 mph 64 % 0.00 in
16:51 82.4 °F 68.5 °F 29.99 in SSW 3.0 mph 10.0 mph 63 % 0.00 in
16:56 82.3 °F 68.5 °F 29.98 in SSW 2.0 mph 7.0 mph 63 % 0.00 in
17:01 82.0 °F 68.2 °F 29.98 in ESE 4.7 mph 9.2 mph 63 % 0.00 in
17:06 81.7 °F 68.3 °F 29.98 in SW 2.8 mph 5.8 mph 64 % 0.00 in
17:11 81.4 °F 68.5 °F 29.98 in SE 3.1 mph 9.2 mph 65 % 0.00 in
17:16 81.1 °F 68.2 °F 29.98 in SSW 2.3 mph 8.1 mph 65 % 0.00 in
17:21 80.9 °F 68.5 °F 29.97 in SSW 1.4 mph 3.5 mph 66 % 0.00 in
17:26 80.5 °F 69.0 °F 29.97 in SSE 2.3 mph 5.8 mph 68 % 0.00 in
17:31 80.4 °F 68.4 °F 29.97 in SW 4.1 mph 10.4 mph 67 % 0.00 in
17:36 80.3 °F 68.8 °F 29.97 in SSE 2.4 mph 5.8 mph 68 % 0.00 in
17:41 80.2 °F 68.7 °F 29.97 in South 1.5 mph 3.0 mph 68 % 0.00 in
17:46 80.0 °F 68.5 °F 29.97 in SW 3.5 mph 5.8 mph 68 % 0.00 in
17:52 79.8 °F 68.7 °F 29.98 in SSE 0.9 mph 3.5 mph 69 % 0.00 in
17:57 79.8 °F 68.7 °F 29.98 in SSW 2.1 mph 4.6 mph 69 % 0.00 in
18:02 79.7 °F 69.0 °F 29.97 in SSW 3.1 mph 6.9 mph 70 % 0.00 in
18:07 79.5 °F 68.4 °F 29.97 in SE 0.2 mph 3.5 mph 69 % 0.00 in
18:12 79.4 °F 68.8 °F 29.97 in SE 1.7 mph 3.5 mph 70 % 0.00 in
18:17 79.3 °F 68.7 °F 29.97 in South 1.5 mph 3.5 mph 70 % 0.00 in
18:22 79.3 °F 68.7 °F 29.97 in SSE 2.1 mph 3.5 mph 70 % 0.00 in
18:27 79.2 °F 68.6 °F 29.97 in SSE 3.4 mph 5.8 mph 70 % 0.00 in
18:32 79.1 °F 68.5 °F 29.97 in SSW 1.6 mph 3.5 mph 70 % 0.00 in
18:38 79.1 °F 68.9 °F 29.97 in SW 0.6 mph 2.3 mph 71 % 0.00 in
18:43 79.0 °F 68.8 °F 29.97 in SSW 0.7 mph 3.5 mph 71 % 0.00 in
18:53 79.0 °F 68.8 °F 29.97 in SSE 0.7 mph 2.3 mph 71 % 0.00 in
18:58 78.9 °F 68.7 °F 29.97 in SSW 3.2 mph 8.1 mph 71 % 0.00 in
19:03 78.9 °F 68.7 °F 29.97 in SSW 0.8 mph 1.2 mph 71 % 0.00 in
19:08 78.9 °F 68.7 °F 29.97 in SSW 0.7 mph 3.5 mph 71 % 0.00 in
19:13 78.8 °F 69.0 °F 29.97 in South 0.7 mph 2.3 mph 72 % 0.00 in
19:18 78.7 °F 68.9 °F 29.97 in SSW 1.2 mph 3.5 mph 72 % 0.00 in
19:23 78.7 °F 69.7 °F 29.97 in West 1.3 mph 4.6 mph 74 % 0.00 in
19:29 78.5 °F 70.3 °F 29.97 in SW 0.6 mph 3.5 mph 76 % 0.00 in
19:34 78.2 °F 70.4 °F 29.97 in South 0.8 mph 2.3 mph 77 % 0.00 in
19:39 77.9 °F 70.5 °F 29.97 in SW 0.1 mph 2.3 mph 78 % 0.00 in
19:44 77.5 °F 70.5 °F 29.97 in SW 0.2 mph 1.2 mph 79 % 0.00 in
19:49 77.3 °F 70.3 °F 29.97 in SSW 1.1 mph 2.3 mph 79 % 0.00 in
19:54 77.0 °F 70.4 °F 29.97 in Calm   2.3 mph 80 % 0.00 in
19:59 76.8 °F 70.2 °F 29.97 in SE 0.4 mph 2.3 mph 80 % 0.00 in
20:04 76.7 °F 70.4 °F 29.97 in ESE 0.4 mph 2.3 mph 81 % 0.00 in
20:09 76.6 °F 70.3 °F 29.97 in SSW 0.6 mph 3.0 mph 81 % 0.00 in
20:14 76.6 °F 70.3 °F 29.97 in SSW 0.7 mph 3.5 mph 81 % 0.00 in
20:20 76.6 °F 70.3 °F 29.97 in SSE 1.4 mph 2.0 mph 81 % 0.00 in
20:25 76.6 °F 70.3 °F 29.97 in SSE 1.1 mph 3.5 mph 81 % 0.00 in
20:30 76.7 °F 70.4 °F 29.97 in SE 0.4 mph 3.5 mph 81 % 0.00 in
20:35 76.9 °F 70.6 °F 29.97 in South 0.4 mph 2.3 mph 81 % 0.00 in
20:40 76.9 °F 70.3 °F 29.97 in South 1.3 mph 3.5 mph 80 % 0.00 in
20:45 77.0 °F 70.7 °F 29.97 in SE 0.6 mph 3.5 mph 81 % 0.00 in
20:50 77.0 °F 70.7 °F 29.97 in South 0.5 mph 3.5 mph 81 % 0.00 in
20:55 77.1 °F 70.5 °F 29.97 in South 1.9 mph 2.3 mph 80 % 0.00 in
21:00 77.1 °F 70.5 °F 29.97 in SW 1.0 mph 3.5 mph 80 % 0.00 in
21:05 77.1 °F 70.5 °F 29.98 in SW 0.4 mph 2.3 mph 80 % 0.00 in
21:10 77.1 °F 70.8 °F 29.98 in SW 1.0 mph 3.0 mph 81 % 0.00 in
21:15 77.1 °F 70.8 °F 29.98 in SSW 1.5 mph 3.0 mph 81 % 0.00 in
21:21 77.1 °F 70.8 °F 29.98 in Calm   3.0 mph 81 % 0.00 in
21:26 77.2 °F 70.9 °F 29.97 in Calm   1.0 mph 81 % 0.00 in
21:31 77.2 °F 70.9 °F 29.98 in SSW 1.0 mph 3.0 mph 81 % 0.00 in
21:35 77.1 °F 70.8 °F 29.98 in Calm   2.0 mph 81 % 0.00 in
21:46 77.1 °F 70.8 °F 29.97 in SSW 1.0 mph 5.0 mph 81 % 0.00 in
21:50 77.0 °F 70.8 °F 29.97 in Calm   3.0 mph 81 % 0.00 in
21:56 77.0 °F 70.7 °F 29.97 in SSW 1.0 mph 3.0 mph 81 % 0.00 in
22:01 77.0 °F 71.1 °F 29.97 in South 0.5 mph 2.3 mph 82 % 0.00 in
22:06 76.9 °F 71.0 °F 29.97 in WSW 0.3 mph 1.2 mph 82 % 0.00 in
22:11 76.9 °F 71.0 °F 29.97 in SSW 2.0 mph 3.5 mph 82 % 0.00 in
22:16 76.7 °F 70.8 °F 29.97 in SSW 0.6 mph 3.5 mph 82 % 0.00 in
22:21 76.7 °F 70.8 °F 29.97 in WNW 0.7 mph 3.5 mph 82 % 0.00 in
22:26 76.6 °F 70.7 °F 29.96 in SW 0.2 mph 3.5 mph 82 % 0.00 in
22:31 76.6 °F 70.7 °F 29.97 in SSW 1.1 mph 3.5 mph 82 % 0.00 in
22:36 76.5 °F 70.6 °F 29.97 in SW 1.5 mph 3.5 mph 82 % 0.00 in
22:41 76.4 °F 70.5 °F 29.97 in West 0.3 mph 2.3 mph 82 % 0.00 in
22:47 76.4 °F 70.5 °F 29.96 in SW 1.4 mph 5.8 mph 82 % 0.00 in
22:52 76.3 °F 70.4 °F 29.97 in West 2.1 mph 3.5 mph 82 % 0.00 in
22:57 76.3 °F 70.4 °F 29.96 in WSW 1.3 mph 3.5 mph 82 % 0.00 in
23:02 76.2 °F 70.3 °F 29.96 in WSW 0.4 mph 2.3 mph 82 % 0.00 in
23:07 76.2 °F 70.3 °F 29.96 in SW 0.5 mph 2.3 mph 82 % 0.00 in
23:12 76.1 °F 70.2 °F 29.96 in SW 1.9 mph 4.0 mph 82 % 0.00 in
23:17 76.0 °F 70.1 °F 29.96 in SW 1.4 mph 2.3 mph 82 % 0.00 in
23:22 75.9 °F 70.4 °F 29.96 in SW 2.0 mph 3.5 mph 83 % 0.00 in
23:27 75.8 °F 70.3 °F 29.96 in SSW 1.1 mph 3.5 mph 83 % 0.00 in
23:32 75.8 °F 70.3 °F 29.95 in SW 1.7 mph 3.5 mph 83 % 0.00 in
23:38 75.7 °F 70.2 °F 29.96 in WSW 1.4 mph 5.8 mph 83 % 0.00 in
23:43 75.7 °F 70.2 °F 29.95 in WSW 1.6 mph 3.5 mph 83 % 0.00 in
23:48 75.7 °F 70.2 °F 29.95 in WSW 0.3 mph 2.0 mph 83 % 0.00 in
23:53 75.6 °F 70.1 °F 29.95 in WSW 1.1 mph 3.5 mph 83 % 0.00 in
23:58 75.6 °F 70.4 °F 29.95 in WSW 1.5 mph 3.5 mph 84 % 0.00 in
Crab Meadow Weather
Compliments of Weather Underground - 2.75 mb

Script developed by  Jim McMurry - jmcmurry@mwt.net Adapted for the template by  Wim van der Kuil - Leuven-Template.eu

Hurricanes: In one day a hurricane can release enough energy to supply all of the nation's electrical needs for about six months.